SCP
0 0 0 0 0 0 0 0 0 0 0 0 0 0 0 0 0 0 0 0 0 0 0 0 0 0 0 0 0 0 0 0 0 0 0 0 0 0 0 0 0 0 0 0
0 0 0 0 0 0 0 0 0 0 0 0 0 0 0 0 0 0 0 0 0 0 0 0 0 0 0 0 0 0 0 0 0 0 0 0 0 0 0 0 0 0 0 0
0 0 0 0 0 0 0 0 0 0 0 0 0 0 0 0 0 0 0 0 0 0 0 0 0 0 0 0 0 0 0 0 0 0 0 0 0 0 0 0 0 0 0 0
0 0 0 0 0 0 0 0 0 0 0 0 0 0 0 0 0 0 0 0 0 0 0 0 0 0 0 0 0 0 0 0 0 0 0 0 0 0 0 0 0 0 0 0
0 0 0 0 0 0 0 0 0 0 0 0 0 0 0 0 0 0 0 0 0 0 0 0 0 0 0 0 0 0 0 0 0 0 0 0 0 0 0 0 0 0 0 0
0 0 0 0 0 0 0 0 0 0 0 0 0 0 0 0 0 0 0 0 0 0 0 0 0 0 0 0 0 0 0 0 0 0 0 0 0 0 0 0 0 0 0 0
0 0 0 0 0 0 0 0 0 0 0 0 0 0 0 0 0 0 0 0 0 0 0 0 0 0 0 0 0 0 0 0 0 0 0 0 0 0 0 0 0 0 0 0
0 0 0 0 0 0 0 0 0 0 0 0 0 0 0 0 0 0 0 0 0 0 0 0 0 0 0 0 0 0 0 0 0 0 0 0 0 0 0 0 0 0 0 0
0 0 0 0 0 0 0 0 0 0 0 0 0 0 0 0 0 0 0 0 0 0 0 0 0 0 0 0 0 0 0 0 0 0 0 0 0 0 0 0 0 0 0 0
0 0 0 0 0 0 0 0 0 0 0 -0 -0 0 0 0 0 0 0 0 0 0 0 0 0 0 0 0 0 0 0 0 0 0 0 0 0 0 0 0 0 0 0 0
0 0 0 0 0 0 0 0 0 0 -0 -0 -0 0 0 0 0 0 0 0 0 0 0 0 0 0 0 0 0 0 0 0 0 0 0 0 0 0 0 0 0 0 0 0
0 0 0 0 0 0 0 0 0 0 -0 -0 -0 0 0 0 0 0 0 0 0 0 0 0 0 0 0 0 0 0 0 0 0 0 0 0 0 0 0 0 0 0 0 0
0 0 0 0 0 0 0 0 0 0 0 0 0 0 0 0 0 0 0 0 0 0 0 0 0 0 0 0 0 0 0 0 0 0 0 0 0 0 0 0 0 0 0 0
0 0 0 0 0 0 0 0 0 0 0 0 0 0 0 0 0 0 0 0 0 0 0 0 0 0 0 0 0 0 0 0 0 0 0 0 0 0 0 0 0 0 0 0
0 0 0 0 0 0 0 0 0 0 0 0 0 0 0 0 0 0 0 0 0 0 0 0 0 0 0 0 0 0 0 0 0 0 0 0 0 0 0 0 0 0 0 0
0 0 0 0 0 0 0 0 0 0 0 0 0 0 0 0 0 0 0 0 0 0 0 0 0 0 0 0 0 0 0 0 0 0 0 0 0 0 0 0 0 0 0 0
0 0 0 0 0 0 0 0 0 0 0 0 0 0 0 0 0 0 0 0 0 0 0 0 -0 0 0 0 0 0 0 0 0 0 0 0 0 0 0 0 0 0 0 0
0 0 0 0 0 0 0 0 0 0 0 0 0 0 0 0 0 0 0 0 0 0 0 0 0 0 0 0 0 0 0 0 0 0 0 0 0 0 0 0 0 0 0 0
0 0 0 0 0 0 0 0 0 0 0 0 0 0 0 0 0 0 -0 0 0 0 0 0 0 0 0 0 0 0 0 0 0 0 0 0 0 0 0 0 0 0 0 0
0 0 0 0 0 0 0 0 0 0 0 0 0 -0 -0 0 0 -0 -0 -0 0 0 0 0 0 0 0 0 0 0 0 0 0 0 0 0 0 0 0 0 0 0 0 0
0 0 0 0 0 0 0 0 0 0 0 0 0 -0 -0 0 0 -0 -0 -0 -0 -0 0 0 0 0 0 0 0 0 0 0 0 0 0 0 0 0 0 0 0 0 0 0
0 0 0 0 0 0 0 0 0 0 0 0 0 0 0 0 0 -0 -0 -0 -0 -0 0 0 0 0 0 0 0 0 0 0 0 0 0 0 0 0 0 0 0 0 0 0
0 0 0 0 0 0 0 0 0 0 0 0 0 0 0 0 0 -0 -0 -0 -0 -0 0 0 0 0 0 0 0 0 0 0 0 0 0 0 0 0 0 0 0 0 0 0
0 0 0 0 0 0 0 0 0 0 0 0 0 0 0 0 0 -0 -0 -0 -0 0 0 0 0 0 0 0 0 0 0 0 0 0 0 0 0 0 0 0 0 0 0 0
0 0 0 0 0 0 0 0 0 0 0 0 0 0 0 0 0 0 0 0 0 0 0 0 0 0 0 0 0 0 0 0 0 0 0 0 0 0 0 0 0 0 0 0
0 0 0 0 0 0 0 0 0 0 0 0 0 0 0 0 0 0 0 0 0 0 0 0 0 0 0 0 0 0 0 0 0 0 0 0 0 0 0 0 0 0 0 0
Wind_Speed
5 7 3 1 0 3 4 4 2 0 1 3 3 1 1 1 1 1 1 1 1 1 2 3 4 4 5 4 4 4 3 3 2 1 1 1 2 2 2 3 4 4 4 4
6 5 4 1 2 5 4 4 2 1 2 2 2 1 1 2 2 2 2 2 1 1 3 4 4 5 5 5 5 4 3 3 2 1 1 0 1 1 1 2 3 4 4 4
6 2 3 3 5 5 3 3 2 1 2 3 2 3 2 1 1 1 1 1 1 1 1 3 4 4 4 5 5 4 4 4 3 2 2 2 1 1 2 3 3 4 4 4
5 4 3 5 4 2 1 1 2 2 2 1 1 2 4 1 1 0 0 0 1 1 1 2 3 4 4 4 4 4 5 4 4 3 2 1 1 1 1 2 2 3 3 3
3 3 4 4 3 2 2 2 2 2 2 1 1 1 5 0 2 3 2 2 1 1 1 1 2 2 3 3 3 4 4 5 5 4 3 1 1 1 1 2 3 3 3 3
1 1 2 1 1 1 2 3 3 3 3 1 1 2 5 2 4 3 2 2 1 1 1 1 2 3 3 4 4 4 4 5 5 5 5 3 2 1 2 3 3 3 3 3
4 4 4 2 3 3 3 4 4 5 3 4 1 2 6 3 2 3 3 2 1 1 0 2 3 4 4 5 5 4 4 4 5 5 4 4 3 2 2 2 2 3 2 3
3 4 5 4 2 1 1 3 4 3 3 3 1 4 5 2 2 2 1 1 0 1 1 2 2 2 3 4 5 5 4 4 5 4 4 3 3 2 1 2 1 2 2 2
2 1 4 3 2 2 3 2 2 4 2 1 4 5 7 1 2 2 2 1 1 1 1 2 1 2 2 3 4 4 4 4 5 4 4 3 3 2 2 2 1 1 2 3
2 1 4 4 2 4 3 4 3 4 2 1 4 4 4 3 3 2 2 2 2 2 1 1 1 1 2 2 2 3 3 3 4 4 3 3 3 3 3 2 3 2 3 3
2 2 3 3 2 2 3 3 3 3 2 3 2 6 4 4 3 3 3 3 2 2 2 2 1 1 1 2 2 2 2 3 3 3 3 3 3 3 3 3 3 3 3 3
1 3 1 2 1 0 0 1 3 3 2 2 2 7 3 3 2 2 3 3 2 2 2 1 1 1 1 2 2 2 2 3 3 3 3 3 3 3 3 3 3 3 3 3
2 4 3 4 3 2 1 0 1 3 3 2 3 7 2 1 2 2 2 2 2 2 2 1 1 1 2 2 2 2 2 2 3 2 3 3 3 3 3 3 3 3 3 3
4 3 3 5 3 1 2 1 2 3 3 3 7 8 7 5 4 3 3 3 2 2 2 2 2 2 2 2 2 2 2 2 2 2 2 3 3 3 3 3 3 3 3 3
4 2 1 2 1 1 3 4 4 5 6 7 7 6 10 7 5 4 3 3 2 2 2 2 2 2 2 2 2 2 2 2 2 2 2 3 3 3 3 3 3 4 4 4
3 3 1 2 1 2 4 7 6 6 5 7 6 10 10 5 2 3 4 4 4 4 4 3 3 2 2 2 2 2 2 2 2 1 2 2 2 2 3 3 3 3 4 4
2 4 2 3 4 4 7 8 8 6 7 8 10 10 4 2 4 4 5 5 5 5 4 4 4 3 3 2 2 2 2 1 1 1 2 2 2 2 3 3 3 3 3 3
5 4 3 1 5 4 8 1 5 5 6 8 8 7 5 5 3 4 5 6 6 5 5 4 3 3 2 2 1 1 1 1 1 1 2 2 2 2 3 3 3 3 3 3
3 6 4 3 1 10 9 4 6 6 7 9 11 10 6 2 3 5 5 5 7 6 5 4 3 3 2 1 1 0 0 1 1 2 2 2 2 2 2 2 3 2 2 3
4 4 5 4 2 7 6 2 4 3 7 6 9 9 6 3 1 5 3 3 4 3 3 2 2 1 1 1 1 1 1 1 2 3 2 2 1 1 2 2 2 2 2 2
2 2 4 4 5 12 8 3 5 4 8 3 7 7 7 8 7 3 1 1 2 2 2 2 2 2 2 1 1 1 1 2 3 2 2 1 1 1 1 1 1 2 2 2
9 8 7 6 5 13 6 9 10 10 2 3 5 6 7 7 4 3 3 2 2 2 2 2 2 2 1 1 2 2 3 3 1 1 1 1 1 1 1 1 1 1 1 2
9 10 9 13 12 5 8 10 7 3 4 4 4 5 6 5 5 5 4 4 3 3 3 3 3 2 1 1 2 3 3 1 0 0 1 1 1 1 1 1 1 1 1 1
6 4 5 7 12 8 9 9 7 6 6 5 5 5 5 6 6 5 5 4 4 3 3 3 3 3 3 2 2 3 1 0 1 1 1 1 1 1 1 1 1 1 1 1
8 8 6 9 10 7 8 11 12 9 7 6 5 5 7 6 6 6 5 5 5 4 3 3 4 4 4 2 3 2 1 1 1 1 1 1 1 1 1 1 1 2 2 2
10 12 13 13 10 8 7 6 8 8 9 9 7 6 5 7 7 6 5 5 4 4 3 3 4 4 4 3 3 2 2 2 2 2 1 1 1 1 1 1 2 3 4 5
Wind_Direction
24 55 42 315 182 128 116 109 113 350 13 76 115 147 229 173 124 126 134 123 94 56 27 29 29 27 26 23 25 25 27 22 30 27 25 19 9 8 13 14 16 13 8 5
52 32 321 308 92 100 98 103 100 40 30 85 101 282 231 191 184 187 175 166 134 39 22 24 25 28 28 22 16 12 11 7 19 20 18 47 0 4 4 358 10 10 9 4
83 326 320 66 67 78 69 136 154 154 24 36 64 327 266 251 82 73 92 123 86 58 5 4 13 12 19 16 7 3 360 4 9 21 48 45 37 16 9 1 3 3 7 8
56 345 28 62 42 56 85 134 153 135 101 347 86 264 267 229 298 293 307 37 20 344 354 2 7 359 4 0 360 6 6 9 11 15 46 46 48 349 324 334 341 351 6 7
35 3 35 46 9 38 130 113 122 129 110 40 53 193 276 176 255 259 248 244 260 280 320 339 342 340 354 4 6 7 12 12 12 16 18 37 35 343 338 360 356 357 8 10
49 5 43 10 343 64 128 85 61 50 63 313 231 184 276 249 239 254 244 237 248 277 345 346 353 358 4 9 13 12 17 12 12 20 23 19 12 356 3 5 356 353 357 357
16 17 8 0 47 30 58 86 44 14 9 259 231 210 253 264 261 241 239 243 245 250 6 352 354 359 2 7 7 7 17 9 11 17 22 16 7 0 2 355 353 350 347 348
58 349 349 4 45 77 60 109 136 172 227 288 330 239 256 277 312 308 261 223 327 326 2 348 355 359 355 2 7 8 10 4 5 9 8 10 8 358 358 4 354 345 334 333
109 299 334 353 355 76 99 86 113 117 70 326 286 293 303 291 343 2 4 12 309 310 330 322 341 3 -0 3 7 7 5 4 3 4 1 3 4 357 355 352 354 342 335 336
129 125 323 324 23 31 80 127 91 103 120 288 297 279 267 290 292 303 298 276 278 294 302 303 325 350 356 1 4 10 11 4 357 358 359 1 359 353 349 356 0 351 344 345
73 106 339 18 36 8 40 71 92 100 137 157 275 277 236 235 243 248 257 255 257 263 270 279 300 335 3 358 5 7 2 2 358 356 356 354 350 352 359 4 356 349 351 357
65 101 13 285 264 294 121 138 140 141 215 182 196 271 274 225 244 234 258 274 273 261 260 267 293 347 357 342 353 357 352 350 343 346 347 342 344 356 8 5 355 356 358 1
109 98 60 356 345 0 0 359 132 121 120 157 188 262 301 344 300 265 253 267 274 276 282 298 325 337 327 320 330 339 340 334 336 345 346 345 352 358 4 0 356 358 1 3
100 96 151 191 230 228 260 265 165 134 159 204 226 252 283 284 281 282 265 258 259 261 267 284 296 304 307 310 317 326 329 333 338 345 346 344 345 350 357 0 4 5 3 7
96 122 206 268 290 254 251 247 212 202 205 207 231 240 263 267 256 255 252 256 266 270 268 264 271 287 300 305 310 316 318 327 335 342 338 331 341 355 2 8 8 7 7 6
83 120 87 325 353 290 274 257 230 227 225 228 253 272 263 263 247 246 245 241 249 253 257 260 264 272 275 281 292 302 305 312 326 331 328 336 346 358 0 2 2 4 4 6
105 113 95 295 321 354 286 241 201 205 211 195 219 239 253 257 242 239 237 233 239 246 249 246 244 246 254 258 263 264 276 308 328 331 337 341 342 351 351 353 357 356 354 4
125 108 107 10 22 271 251 200 183 207 239 216 230 244 242 238 264 262 239 228 238 241 242 240 237 241 249 255 257 268 309 344 335 332 331 336 339 337 343 351 345 344 352 357
124 127 110 103 299 282 290 235 180 189 267 220 220 242 249 260 335 293 248 216 223 229 228 225 222 218 224 241 253 234 322 348 334 312 311 317 320 322 333 330 328 342 351 347
66 94 112 126 178 249 253 173 163 120 285 234 195 218 218 150 251 263 238 212 223 227 215 209 204 191 212 242 189 169 237 295 282 283 291 304 307 298 299 304 328 349 343 339
140 102 141 164 225 262 248 159 134 167 245 204 183 197 185 193 218 238 239 233 219 212 206 185 176 193 220 211 162 187 229 257 274 294 305 315 308 292 294 317 339 349 346 346
175 168 183 157 202 254 193 151 190 216 220 175 187 193 195 214 238 252 256 251 232 217 210 187 187 209 215 161 168 206 244 270 305 309 305 310 317 319 334 334 333 349 352 336
202 193 184 193 214 241 178 202 219 198 205 209 202 207 198 215 233 237 242 243 236 221 214 199 194 204 202 184 186 217 256 297 321 319 291 300 323 333 350 334 317 338 339 314
234 196 196 246 258 246 234 242 247 228 226 227 215 208 198 216 228 232 235 235 231 224 215 204 194 212 230 214 215 232 254 180 172 222 264 298 308 323 343 320 293 278 271 271
209 173 201 249 264 283 259 230 232 230 228 231 229 215 209 212 229 228 233 233 227 223 212 197 204 221 232 219 227 239 216 169 190 217 243 282 286 287 290 278 257 257 253 254
192 185 187 223 218 204 236 226 210 209 220 219 216 225 220 211 224 224 229 227 218 216 205 205 216 226 233 223 230 228 195 180 185 206 223 232 248 267 282 296 312 290 280 289